GW4151 Weather Reports


time (UTC)temp
C
wind
direction
speed
KPH
gust
KPH
rain 1hr
cm
rain 24hr
cm
rain mn
cm
humidity
%
barometer
mb
20260510072306 5 186 0.0 1.6 0.00 0.00 0.00 71 993.2
20260510070802 5 93 1.6 1.6 0.00 0.00 0.00 67 992.9
20260510065301 6 154 0.0 1.6 0.00 0.00 0.00 65 993.0
20260510063757 6 116 1.6 3.2 0.00 0.00 0.00 65 992.8
20260510062257 6 126 1.6 1.6 0.00 0.00 0.00 66 993.1
20260510060757 7 38 3.2 4.8 0.00 0.00 0.00 64 992.9
20260510055256 7 320 9.7 12.9 0.00 0.00 0.00 61 992.7
20260510053751 8 6 8.0 20.9 0.00 0.00 0.00 63 992.3
20260510052251 8 18 4.8 6.4 0.00 0.00 0.00 65 991.8
20260510050747 8 310 3.2 9.7 0.00 0.00 0.00 63 991.3
20260510045243 8 24 4.8 6.4 0.00 0.00 0.00 63 991.0
20260510043739 8 167 0.0 9.7 0.00 0.00 0.00 64 990.6
20260510042235 9 259 3.2 9.7 0.00 0.00 0.00 65 990.4
20260510040732 10 338 3.2 9.7 0.00 0.00 0.00 64 990.0
20260510035232 10 294 6.4 14.5 0.00 0.00 0.00 62 989.6
20260510033728 10 81 9.7 14.5 0.00 0.00 0.00 61 989.1
20260510032224 10 279 3.2 11.3 0.00 0.00 0.00 59 989.0
20260510030720 10 327 4.8 6.4 0.00 0.00 0.00 60 989.0
20260510025219 10 267 1.6 6.4 0.00 0.00 0.00 59 988.8
20260510023719 10 329 1.6 3.2 0.00 0.00 0.00 60 988.7
20260510022219 11 281 1.6 3.2 0.00 0.00 0.00 58 988.6
20260510020719 11 224 1.6 4.8 0.00 0.00 0.00 57 988.3
20260510015218 12 194 0.0 1.6 0.00 0.00 0.00 55 988.1
20260510013717 12 192 1.6 3.2 0.00 0.00 0.00 55 987.8
20260510012214 12 238 1.6 9.7 0.00 0.00 0.00 54 987.6
20260510010713 13 33 4.8 11.3 0.00 0.00 0.00 54 987.4
20260510005208 13 331 4.8 9.7 0.00 0.00 0.00 53 987.2
20260510003707 13 302 3.2 4.8 0.00 0.00 0.00 53 986.9
20260510002205 14 303 6.4 17.7 0.00 0.00 0.00 51 986.8
20260510000701 15 357 4.8 4.8 0.00 0.00 0.00 51 986.6
20260509235158 15 201 1.6 6.4 0.00 0.00 0.00 49 986.2
20260509233655 15 290 8.0 17.7 0.00 0.00 0.00 48 986.1
20260509232151 16 284 9.7 16.1 0.00 0.00 0.00 45 985.8
20260509230648 16 251 9.7 16.1 0.00 0.00 0.00 37 985.8
20260509225148 16 322 6.4 16.1 0.00 0.00 0.00 38 985.6
20260509223644 16 348 14.5 24.1 0.00 0.00 0.00 44 985.4
20260509222139 16 305 9.7 14.5 0.00 0.00 0.00 50 985.0
20260509220639 17 293 11.3 17.7 0.00 0.00 0.00 52 984.3
20260509215134 18 248 17.7 20.9 0.00 0.00 0.00 56 983.8
20260509213631 18 274 8.0 11.3 0.00 0.00 0.00 57 983.6
20260509212127 18 238 3.2 11.3 0.00 0.00 0.00 60 983.7
20260509210622 18 242 3.2 14.5 0.00 0.00 0.00 59 983.4
20260509205120 18 264 6.4 16.1 0.00 0.00 0.00 59 983.6
20260509203615 18 222 9.7 16.1 0.00 0.00 0.00 58 983.8
20260509202110 17 256 14.5 20.9 0.00 0.00 0.00 59 983.9
20260509200608 17 304 8.0 14.5 0.00 0.00 0.00 60 983.8
20260509195107 17 171 6.4 12.9 0.00 0.00 0.00 58 983.7
20260509193606 17 265 14.5 17.7 0.00 0.00 0.00 55 984.0
20260509192105 17 238 11.3 14.5 0.00 0.00 0.00 55 984.1
20260509190605 16 228 3.2 12.9 0.00 0.00 0.00 60 983.9
20260509185101 16 220 6.4 14.5 0.00 0.00 0.00 64 983.8
20260509183557 15 190 6.4 14.5 0.00 0.00 0.00 68 984.1
20260509182053 15 217 4.8 9.7 0.00 0.00 0.00 72 983.8
20260509180549 13 233 9.7 14.5 0.00 0.00 0.00 74 984.0
20260509175046 13 169 3.2 11.3 0.00 0.00 0.00 77 984.0
20260509173543 13 234 6.4 14.5 0.00 0.00 0.00 77 984.3
20260509172039 12 168 4.8 6.4 0.00 0.00 0.00 74 983.5
20260509170538 12 276 4.8 11.3 0.00 0.00 0.00 81 984.9
20260509165035 12 310 3.2 11.3 0.00 0.00 0.00 79 984.6
20260509163531 12 223 4.8 14.5 0.00 0.00 0.00 77 984.5
20260509162030 12 273 9.7 14.5 0.00 0.00 0.00 79 984.6
20260509160530 12 245 11.3 22.5 0.00 0.00 0.00 80 984.9
20260509155029 13 155 12.9 17.7 0.00 0.00 0.00 80 984.1
20260509153525 13 253 12.9 29.0 0.00 0.00 0.00 78 983.6
20260509152021 14 271 19.3 37.0 0.00 0.00 0.00 77 983.1
20260509150518 15 232 8.0 24.1 0.00 0.00 0.00 73 982.9
20260509145019 15 244 22.5 25.7 0.00 0.00 0.00 74 982.6
20260509143516 15 195 12.9 29.0 0.00 0.00 0.00 74 982.6
20260509142011 15 249 4.8 20.9 0.00 0.00 0.00 74 982.2
20260509140507 15 193 6.4 16.1 0.00 0.00 0.00 73 982.3
20260509135005 15 126 14.5 24.1 0.00 0.00 0.00 73 982.6
20260509133502 15 253 11.3 17.7 0.00 0.00 0.00 73 982.2
20260509132001 15 179 8.0 24.1 0.00 0.00 0.00 73 982.2
20260509130501 15 221 9.7 25.7 0.00 0.00 0.00 71 982.2
20260509124957 15 231 11.3 30.6 0.00 0.00 0.00 69 982.5
20260509123455 15 204 3.2 11.3 0.00 0.00 0.00 75 982.6
20260509121950 13 94 1.6 11.3 0.00 0.00 0.00 80 982.5
20260509120449 12 254 6.4 11.3 0.00 0.00 0.00 82 982.4
20260509114947 12 228 4.8 12.9 0.00 0.00 0.00 85 982.2
20260509113447 11 110 8.0 12.9 0.00 0.00 0.00 86 982.1
20260509111944 11 170 8.0 14.5 0.00 0.00 0.00 87 982.1
20260509110441 11 181 6.4 14.5 0.00 0.00 0.00 88 982.2
20260509104940 11 228 14.5 22.5 0.00 0.00 0.00 88 982.4
20260509103437 11 245 3.2 17.7 0.00 0.00 0.00 88 982.4
20260509101934 10 168 4.8 9.7 0.00 0.00 0.00 90 982.6
20260509100431 10 212 6.4 16.1 0.00 0.00 0.00 91 982.5
20260509094927 10 161 6.4 14.5 0.00 0.00 0.00 91 983.2
20260509093424 10 163 4.8 12.9 0.00 0.00 0.00 90 983.0
20260509091924 10 199 3.2 9.7 0.00 0.00 0.00 90 983.0
20260509090421 10 185 6.4 9.7 0.00 0.00 0.00 90 983.1
20260509084917 10 149 6.4 9.7 0.00 0.00 0.00 89 983.1
20260509083414 10 168 4.8 9.7 0.00 0.00 0.00 88 983.4
20260509081911 11 181 8.0 11.3 0.00 0.00 0.00 87 983.5
20260509080409 11 260 6.4 12.9 0.00 0.00 0.00 86 983.8
20260509074907 11 144 3.2 11.3 0.00 0.00 0.00 84 983.6